Home > Weather > Breckenridge > Past weeks

Flag for USA Past Weather in Breckenridge, Colorado, USA — Yesterday and Last 2 Weeks

Now
45 °F

Thunderstorms. More clouds than sun.


Feels Like: 39 °F
Forecast: 49 / 64 °F
Wind: 12 mph from South

Location: Copper Mountain - Red Cliff Pass

Current Time: Aug 29, 2016 at 3:50:23 PM

Latest Report: Aug 29, 2016 at 3:16 PM


Visibility: 10 mi

Pressure: 30.71 "Hg (21.50 "Hg at 2921m altitude)

Humidity: 71%

Dew Point: 36 °F

Location of BreckenridgeLocation

Past Weather in Breckenridge — Graph

°F

Breckenridge Temperature Yesterday

Maximum temperature yesterday: 54 °F (at 12:35 PM)
Minimum temperature yesterday: 41 °F (at 6:36 PM)
Average temperature yesterday: 45 °F

High & Low Weather Summary for the Past Weeks

 TemperatureHumidityPressure
High64 °F (Aug 15, 2:36 PM)87% (Aug 18, 9:16 PM)30.75 "Hg (Aug 18, 9:16 PM)
Low36 °F (Aug 25, 8:36 PM)12% (Aug 15, 3:36 PM)30.47 "Hg (Aug 20, 5:36 AM)
Average49 °F53%30.58 "Hg
* Reported Aug 14 2:16 PM — Aug 29 2:36 PM, Breckenridge, Weather by CustomWeather, © 2016

Note: Actual official high and low records may vary slightly from our data, if they occured in-between our weather recording intervals... More about our weather records

Advertising

Breckenridge Weather History for the Previous 24 Hours

Scroll right to see more
 ConditionsComfort  
Time TempWeatherWind HumidityBarometerVisibility
2:36 PM
Mon, Aug 29
46 °FThundershowers. Cloudy.3 mph62%30.71 "Hg7 mi
2:16 PM54 °FThunderstorms. Broken clouds.25 mph51%30.69 "Hg10 mi
1:56 PM57 °FPartly sunny.No wind44%30.70 "Hg10 mi
1:36 PM50 °FThundershowers. Cloudy.7 mph50%30.70 "Hg10 mi
1:16 PM52 °FThundershowers. Cloudy.14 mph47%30.71 "Hg10 mi
12:56 PM55 °FThunderstorms. Broken clouds.16 mph44%30.70 "Hg10 mi
12:36 PM59 °FBroken clouds.15 mph39%30.69 "Hg10 mi
12:16 PM54 °FBroken clouds.10 mph51%30.71 "Hg10 mi
11:56 AM54 °FBroken clouds.7 mph51%30.71 "Hg10 mi
11:36 AM54 °FScattered clouds.13 mph51%30.71 "Hg10 mi
11:16 AM50 °FScattered clouds.14 mph50%30.72 "Hg10 mi
10:56 AM50 °FBroken clouds.5 mph50%30.71 "Hg10 mi
10:36 AM46 °FPartly sunny.12 mph57%30.71 "Hg10 mi
10:16 AM45 °FDrizzle. Overcast.12 mph61%30.70 "Hg10 mi
9:56 AM45 °FLight rain. Cloudy.16 mph61%30.69 "Hg7 mi
9:36 AM45 °FDrizzle. Cloudy.12 mph61%30.70 "Hg10 mi
9:16 AM46 °FCloudy.13 mph57%30.69 "Hg10 mi
8:56 AM46 °FCloudy.9 mph57%30.68 "Hg10 mi
8:36 AM46 °FMore clouds than sun.7 mph62%30.68 "Hg10 mi
8:16 AM45 °FLight rain. Cloudy.9 mph61%30.68 "Hg10 mi
7:56 AM45 °FMostly cloudy.7 mph61%30.68 "Hg10 mi
7:36 AM45 °FMore clouds than sun.6 mph61%30.68 "Hg10 mi
7:16 AM45 °FOvercast.3 mph61%30.68 "Hg10 mi
6:56 AM45 °FOvercast.3 mph61%30.68 "Hg10 mi
6:36 AM45 °FOvercast.3 mph61%30.67 "Hg10 mi
6:16 AM45 °FOvercast.3 mph61%30.67 "Hg10 mi
5:56 AM45 °FOvercast.No wind61%30.67 "Hg10 mi
5:36 AM46 °FOvercast.No wind57%30.67 "Hg10 mi
5:16 AM45 °FPassing clouds.No wind61%30.67 "Hg10 mi
4:56 AM45 °FClear.3 mph61%30.66 "Hg10 mi
4:36 AM45 °FClear.3 mph61%30.66 "Hg10 mi
4:16 AM46 °FClear.5 mph57%30.66 "Hg10 mi
3:56 AM46 °FClear.3 mph57%30.67 "Hg10 mi
3:36 AM46 °FClear.7 mph57%30.66 "Hg10 mi
3:16 AM45 °FClear.8 mph61%30.67 "Hg10 mi
2:56 AM46 °FClear.9 mph57%30.66 "Hg10 mi
2:36 AM45 °FClear.10 mph61%30.67 "Hg10 mi
2:16 AM45 °FPassing clouds.7 mph61%30.67 "Hg10 mi
1:56 AM46 °FOvercast.7 mph57%30.67 "Hg10 mi
1:36 AM46 °FOvercast.7 mph57%30.68 "Hg10 mi
1:16 AM45 °FOvercast.10 mph61%30.68 "Hg10 mi
12:56 AM45 °FOvercast.12 mph61%30.69 "Hg10 mi
12:36 AM45 °FOvercast.10 mph61%30.68 "Hg10 mi
12:16 AM45 °FPassing clouds.6 mph61%30.69 "Hg10 mi
11:56 PM
Sun, Aug 28
45 °FThundershowers. Clear.3 mph61%30.69 "Hg10 mi
11:36 PM45 °FClear.No wind66%30.69 "Hg10 mi
11:16 PM45 °FPassing clouds.5 mph66%30.69 "Hg10 mi
10:56 PM45 °FClear.5 mph61%30.69 "Hg10 mi
10:36 PM45 °FPassing clouds.No wind61%30.69 "Hg10 mi
10:16 PM45 °FThundershowers. Passing clouds.5 mph66%30.70 "Hg10 mi
9:56 PM45 °FPassing clouds.No wind61%30.69 "Hg10 mi
9:36 PM45 °FPassing clouds.7 mph61%30.69 "Hg10 mi
9:16 PM45 °FThundershowers. Partly cloudy.3 mph61%30.69 "Hg10 mi
8:56 PM45 °FMostly cloudy.No wind66%30.69 "Hg10 mi
8:36 PM45 °FPartly sunny.No wind66%30.69 "Hg10 mi
8:16 PM45 °FThundershowers. Scattered clouds.No wind71%30.69 "Hg10 mi
7:56 PM41 °FThundershowers. Broken clouds.9 mph81%30.69 "Hg10 mi
7:36 PM41 °FMore clouds than sun.9 mph81%30.68 "Hg10 mi
7:16 PM41 °FBroken clouds.12 mph81%30.69 "Hg10 mi
6:56 PM41 °FThunderstorms. Low clouds.15 mph81%30.69 "Hg0 mi
6:36 PM41 °FLow clouds.12 mph81%30.68 "Hg0 mi
4:45 PM46 °FThundershowers. Sunny.10 mph66%30.65 "Hg10 mi
4:35 PM45 °FThunderstorms. Scattered clouds.10 mph71%30.64 "Hg10 mi
4:15 PM45 °FThunderstorms. Partly sunny.8 mph66%30.64 "Hg10 mi
3:55 PM45 °FThundershowers. Cloudy.3 mph71%30.64 "Hg10 mi
3:35 PM45 °FThunderstorms. Mostly cloudy.8 mph66%30.64 "Hg10 mi
3:15 PM45 °FThunderstorms. Cloudy.16 mph66%30.63 "Hg10 mi
Weather by CustomWeather, © 2016

See weather overviewHow to use our weather pages